FW5435 Weather Reports


Display with metric or nautical units.
time (UTC)temp
F
wind
direction
speed
MPH
gust
MPH
rain 1hr
in
rain 24hr
in
rain mn
in
humidity
%
barometer
mb
20260505222034 78 273 0.0 10.0 0.00 0.00 0.00 49 1013.2
20260505221549 78 265 2.0 8.0 0.00 0.00 0.00 48 1013.2
20260505221035 78 0 2.0 11.0 0.00 0.00 0.00 48 1013.2
20260505220535 79 0 2.0 11.0 0.00 0.00 0.00 47 1013.1
20260505220048 79 0 3.0 9.0 0.00 0.00 0.00 47 1013.0
20260505215534 79 0 2.0 10.0 0.00 0.00 0.00 49 1013.1
20260505215035 79 266 2.0 10.0 0.00 0.00 0.00 46 1013.1
20260505214554 80 0 2.0 9.0 0.00 0.00 0.00 47 1013.1
20260505214035 80 279 3.0 9.0 0.00 0.00 0.00 46 1013.1
20260505213536 80 0 0.0 8.0 0.00 0.00 0.00 47 1013.2
20260505213045 80 0 1.0 11.0 0.00 0.00 0.00 46 1013.1
20260505212535 80 269 2.0 11.0 0.00 0.00 0.00 46 1013.0
20260505212038 81 262 4.0 9.0 0.00 0.00 0.00 46 1013.1
20260505211555 81 247 3.0 8.0 0.00 0.00 0.00 44 1013.0
20260505211034 81 0 0.0 8.0 0.00 0.00 0.00 44 1013.1
20260505210534 81 255 2.0 10.0 0.00 0.00 0.00 45 1013.2
20260505210046 81 250 2.0 10.0 0.00 0.00 0.00 45 1013.2
20260505205535 81 0 0.0 9.0 0.00 0.00 0.00 44 1013.2
20260505205034 81 0 1.0 9.0 0.00 0.00 0.00 45 1013.4
20260505204549 81 267 2.0 16.0 0.00 0.00 0.00 44 1013.4
20260505204034 80 267 4.0 16.0 0.00 0.00 0.00 43 1013.3
20260505203534 81 338 3.0 14.0 0.00 0.00 0.00 44 1013.4
20260505203105 81 266 3.0 12.0 0.00 0.00 0.00 42 1013.4
20260505202535 82 254 6.0 12.0 0.00 0.00 0.00 40 1013.4
20260505202035 83 269 2.0 10.0 0.00 0.00 0.00 41 1013.3
20260505201545 82 0 2.0 10.0 0.00 0.00 0.00 44 1013.3
20260505201034 82 265 2.0 10.0 0.00 0.00 0.00 43 1013.4
20260505200535 82 0 1.0 8.0 0.00 0.00 0.00 44 1013.4
20260505200054 81 0 0.0 12.0 0.00 0.00 0.00 46 1013.4
20260505195536 80 263 3.0 12.0 0.00 0.00 0.00 45 1013.5
20260505195034 81 265 4.0 12.0 0.00 0.00 0.00 44 1013.6
20260505194548 81 261 2.0 11.0 0.00 0.00 0.00 44 1013.7
20260505194034 81 281 3.0 11.0 0.00 0.00 0.00 41 1013.8
20260505193535 81 0 3.0 11.0 0.00 0.00 0.00 44 1013.9
20260505193047 80 286 2.0 11.0 0.00 0.00 0.00 46 1014.0
20260505192538 80 267 3.0 16.0 0.00 0.00 0.00 46 1014.1
20260505192034 79 277 4.0 16.0 0.00 0.00 0.00 44 1014.2
20260505191555 79 267 3.0 10.0 0.00 0.00 0.00 46 1014.2
20260505191033 80 273 3.0 10.0 0.00 0.00 0.00 45 1014.2
20260505190534 80 269 3.0 10.0 0.00 0.00 0.00 45 1014.4
20260505190045 80 251 4.0 9.0 0.00 0.00 0.00 46 1014.5
20260505185537 80 0 0.0 12.0 0.00 0.00 0.00 46 1014.5
20260505185035 80 262 5.0 12.0 0.00 0.00 0.00 44 1014.5
20260505184549 80 254 3.0 11.0 0.00 0.00 0.00 44 1014.4
20260505184035 80 268 3.0 10.0 0.00 0.00 0.00 46 1014.7
20260505183535 80 274 0.0 11.0 0.00 0.00 0.00 45 1014.7
20260505183045 80 249 4.0 11.0 0.00 0.00 0.00 45 1014.8
20260505182538 80 218 2.0 9.0 0.00 0.00 0.00 46 1015.0
20260505182034 79 268 1.0 7.0 0.00 0.00 0.00 47 1015.2
20260505181548 79 0 2.0 10.0 0.00 0.00 0.00 47 1015.1
20260505181039 79 263 1.0 14.0 0.00 0.00 0.00 47 1015.1
20260505180539 79 250 3.0 14.0 0.00 0.00 0.00 46 1015.2
20260505180048 79 272 4.0 10.0 0.00 0.00 0.00 44 1015.2
20260505175537 79 258 3.0 10.0 0.00 0.00 0.00 48 1015.2
20260505175035 79 263 0.0 8.0 0.00 0.00 0.00 48 1015.2
20260505174543 79 249 2.0 9.0 0.00 0.00 0.00 47 1015.3
20260505174034 79 267 3.0 10.0 0.00 0.00 0.00 49 1015.3
20260505173534 79 262 4.0 10.0 0.00 0.00 0.00 47 1015.3
20260505173050 79 252 0.0 9.0 0.00 0.00 0.00 48 1015.3
20260505172533 78 0 0.0 7.0 0.00 0.00 0.00 49 1015.3
20260505172034 78 268 2.0 7.0 0.00 0.00 0.00 48 1015.3
20260505171546 78 265 1.0 10.0 0.00 0.00 0.00 48 1015.4
20260505171035 77 272 1.0 10.0 0.00 0.00 0.00 48 1015.4
20260505170534 78 252 4.0 10.0 0.00 0.00 0.00 46 1015.5
20260505170048 77 269 2.0 10.0 0.00 0.00 0.00 48 1015.5
20260505165534 77 260 3.0 13.0 0.00 0.00 0.00 50 1015.5
20260505165034 76 254 5.0 13.0 0.00 0.00 0.00 46 1015.5
20260505164547 76 271 1.0 9.0 0.00 0.00 0.00 52 1015.7
20260505164035 76 0 1.0 10.0 0.00 0.00 0.00 53 1015.6
20260505163534 76 265 2.0 10.0 0.00 0.00 0.00 53 1015.8
20260505163045 75 0 2.0 8.0 0.00 0.00 0.00 54 1015.7
20260505162536 75 264 2.0 9.0 0.00 0.00 0.00 56 1015.7
20260505162034 75 0 2.0 9.0 0.00 0.00 0.00 54 1015.8
20260505161545 75 0 3.0 10.0 0.00 0.00 0.00 57 1015.8
20260505161036 74 0 2.0 10.0 0.00 0.00 0.00 59 1015.8
20260505160535 74 267 0.0 7.0 0.00 0.00 0.00 60 1015.9
20260505153049 72 258 1.0 8.0 0.00 0.00 0.00 61 1016.2
20260505152533 72 0 1.0 10.0 0.00 0.00 0.00 62 1016.2
20260505152035 72 263 3.0 12.0 0.00 0.00 0.00 61 1016.2
20260505151550 71 273 3.0 12.0 0.00 0.00 0.00 61 1016.2
20260505151034 71 265 2.0 9.0 0.00 0.00 0.00 62 1016.3
20260505150534 71 0 2.0 9.0 0.00 0.00 0.00 64 1016.2
20260505140534 67 262 2.0 13.0 0.00 0.00 0.00 69 1016.1
20260505125036 63 259 3.0 9.0 0.00 0.00 0.00 75 1016.2
20260505124551 62 267 2.0 8.0 0.00 0.00 0.00 77 1016.3
20260505124035 62 255 3.0 8.0 0.00 0.00 0.00 77 1016.3
20260505123536 61 271 2.0 8.0 0.00 0.00 0.00 79 1016.4
20260505123046 60 273 1.0 8.0 0.00 0.00 0.00 80 1016.3
20260505122535 59 262 1.0 7.0 0.00 0.00 0.00 81 1016.4
20260505122036 58 260 2.0 6.0 0.00 0.00 0.00 83 1016.3
20260505121549 58 271 0.0 6.0 0.00 0.00 0.00 84 1016.4
20260505121036 56 261 2.0 6.0 0.00 0.00 0.00 86 1016.3
20260505120536 55 0 2.0 6.0 0.00 0.00 0.00 90 1016.2
20260505115535 53 260 0.0 0.0 0.00 0.00 0.00 92 1016.2
20260505115035 52 0 0.0 0.0 0.00 0.00 0.00 92 1016.1
20260505114551 52 0 0.0 0.0 0.00 0.00 0.00 92 1016.1
20260505114036 52 0 0.0 0.0 0.00 0.00 0.00 92 1016.1
20260505113535 51 0 0.0 0.0 0.00 0.00 0.00 92 1016.2
20260505113054 51 0 0.0 0.0 0.00 0.00 0.00 92 1016.2
20260505112535 50 0 0.0 0.0 0.00 0.00 0.00 92 1016.1
20260505112035 50 0 0.0 0.0 0.00 0.00 0.00 91 1016.0
20260505111548 50 0 0.0 0.0 0.00 0.00 0.00 91 1016.0
20260505111038 50 0 0.0 0.0 0.00 0.00 0.00 91 1015.8
20260505110535 50 0 0.0 0.0 0.00 0.00 0.00 91 1015.8
20260505102035 50 0 0.0 0.0 0.00 0.00 0.00 89 1015.4
20260505101554 50 0 0.0 0.0 0.00 0.00 0.00 89 1015.4
20260505101035 50 0 0.0 0.0 0.00 0.00 0.00 89 1015.4
20260505100536 50 0 0.0 0.0 0.00 0.00 0.00 89 1015.4
20260505100046 50 0 0.0 0.0 0.00 0.00 0.00 89 1015.3
20260505095537 50 0 0.0 0.0 0.00 0.00 0.00 88 1015.4
20260505095035 51 0 0.0 0.0 0.00 0.00 0.00 88 1015.3
20260505094552 51 0 0.0 0.0 0.00 0.00 0.00 89 1015.3
20260505094035 51 0 0.0 0.0 0.00 0.00 0.00 89 1015.4
20260505093535 51 0 0.0 0.0 0.00 0.00 0.00 88 1015.2
20260505093053 51 0 0.0 0.0 0.00 0.00 0.00 88 1015.1
20260505092535 51 0 0.0 0.0 0.00 0.00 0.00 88 1015.2
20260505092038 51 0 0.0 0.0 0.00 0.00 0.00 87 1015.1
20260505091545 52 0 0.0 0.0 0.00 0.00 0.00 87 1015.1
20260505091034 52 0 0.0 0.0 0.00 0.00 0.00 87 1015.1
20260505090535 52 0 0.0 0.0 0.00 0.00 0.00 87 1015.1
20260505090048 52 0 0.0 0.0 0.00 0.00 0.00 86 1015.0
20260505085540 52 0 0.0 0.0 0.00 0.00 0.00 86 1015.1
20260505085038 53 0 0.0 0.0 0.00 0.00 0.00 85 1015.0
20260505084547 53 0 0.0 0.0 0.00 0.00 0.00 85 1015.0
20260505084034 53 0 0.0 0.0 0.00 0.00 0.00 85 1014.9
20260505083538 53 0 0.0 0.0 0.00 0.00 0.00 85 1014.9
20260505083101 53 0 0.0 0.0 0.00 0.00 0.00 84 1014.8
20260505082536 54 0 0.0 0.0 0.00 0.00 0.00 84 1014.8
20260505082035 54 0 0.0 0.0 0.00 0.00 0.00 83 1014.9
20260505081545 54 0 0.0 0.0 0.00 0.00 0.00 83 1014.7
20260505081035 54 0 0.0 0.0 0.00 0.00 0.00 82 1014.8
20260505080536 55 0 0.0 0.0 0.00 0.00 0.00 82 1014.8
20260505080045 55 0 0.0 0.0 0.00 0.00 0.00 81 1014.7
20260505075535 55 0 0.0 0.0 0.00 0.00 0.00 81 1014.7
20260505075035 56 0 0.0 0.0 0.00 0.00 0.00 80 1014.7
20260505074544 56 0 0.0 0.0 0.00 0.00 0.00 80 1014.7
20260505074036 56 0 0.0 0.0 0.00 0.00 0.00 79 1014.6
20260505073535 57 0 0.0 0.0 0.00 0.00 0.00 78 1014.6
20260505073042 57 0 0.0 0.0 0.00 0.00 0.00 78 1014.6
20260505072535 57 0 0.0 0.0 0.00 0.00 0.00 76 1014.6
20260505072035 58 0 0.0 0.0 0.00 0.00 0.00 76 1014.6
20260505071545 58 0 0.0 0.0 0.00 0.00 0.00 75 1014.6
20260505071035 58 0 0.0 0.0 0.00 0.00 0.00 76 1014.6
20260505070535 58 0 0.0 0.0 0.00 0.00 0.00 75 1014.5
20260505070059 58 0 0.0 0.0 0.00 0.00 0.00 74 1014.6
20260505065536 59 0 0.0 0.0 0.00 0.00 0.00 74 1014.5
20260505065034 59 0 0.0 0.0 0.00 0.00 0.00 74 1014.5
20260505064548 59 0 0.0 0.0 0.00 0.00 0.00 73 1014.6
20260505064034 59 0 0.0 0.0 0.00 0.00 0.00 73 1014.6
20260505063534 60 0 0.0 0.0 0.00 0.00 0.00 73 1014.6
20260505063048 60 0 0.0 0.0 0.00 0.00 0.00 73 1014.6
20260505062536 60 0 0.0 1.0 0.00 0.00 0.00 72 1014.6
20260505062037 61 0 0.0 1.0 0.00 0.00 0.00 71 1014.6
20260505061608 61 0 0.0 3.0 0.00 0.00 0.00 70 1014.5
20260505061035 61 0 0.0 3.0 0.00 0.00 0.00 71 1014.6
20260505060536 61 260 0.0 3.0 0.00 0.00 0.00 70 1014.5
20260505060050 61 0 0.0 3.0 0.00 0.00 0.00 70 1014.6
20260505055535 62 260 0.0 4.0 0.00 0.00 0.00 69 1014.7
20260505055037 62 0 1.0 4.0 0.00 0.00 0.00 69 1014.7
20260505054554 62 0 0.0 3.0 0.00 0.00 0.00 69 1014.6
20260505054034 62 0 0.0 3.0 0.00 0.00 0.00 69 1014.7
20260505053534 62 0 0.0 3.0 0.00 0.00 0.00 69 1014.7
20260505053047 62 0 0.0 3.0 0.00 0.00 0.00 69 1014.7
20260505052535 62 0 0.0 2.0 0.00 0.00 0.00 68 1014.8
20260505052035 63 0 0.0 3.0 0.00 0.00 0.00 68 1014.8
20260505051545 63 0 0.0 7.0 0.00 0.00 0.00 68 1014.7
20260505051035 63 0 1.0 7.0 0.00 0.00 0.00 68 1014.9
20260505050535 63 0 0.0 4.0 0.00 0.00 0.00 68 1014.9
20260505041550 64 263 1.0 6.0 0.00 0.00 0.00 65 1014.8
20260505041039 65 0 0.0 7.0 0.00 0.00 0.00 65 1014.6
20260505040535 65 0 1.0 8.0 0.00 0.00 0.00 65 1014.7
20260505040057 65 0 1.0 8.0 0.00 0.00 0.00 65 1014.7
20260505035534 65 269 0.0 7.0 0.00 0.00 0.00 65 1014.8
20260505035037 65 0 1.0 7.0 0.00 0.00 0.00 64 1014.7
20260505034547 66 0 1.0 7.0 0.00 0.00 0.00 64 1014.7
20260505034034 66 271 0.0 7.0 0.00 0.00 0.00 64 1014.7
20260505033535 66 264 1.0 9.0 0.00 0.00 0.00 64 1014.6
20260505033054 66 270 0.0 9.0 0.00 0.00 0.00 63 1014.7
20260505032535 66 0 2.0 4.0 0.00 0.00 0.00 63 1014.6
20260505032036 66 267 0.0 10.0 0.00 0.00 0.00 63 1014.7
20260505031551 67 268 0.0 11.0 0.00 0.00 0.00 63 1014.6
20260505031035 67 261 2.0 11.0 0.00 0.00 0.00 62 1014.6
20260505030535 67 269 2.0 7.0 0.00 0.00 0.00 63 1014.6
20260505030045 67 263 1.0 8.0 0.00 0.00 0.00 62 1014.6
20260505025535 67 281 2.0 10.0 0.00 0.00 0.00 62 1014.7
20260505025038 67 0 3.0 10.0 0.00 0.00 0.00 62 1014.7
20260505024542 67 0 2.0 8.0 0.00 0.00 0.00 61 1014.5
20260505024034 68 0 2.0 10.0 0.00 0.00 0.00 61 1014.5
20260505023534 68 271 3.0 10.0 0.00 0.00 0.00 61 1014.5
20260505023044 68 289 3.0 10.0 0.00 0.00 0.00 61 1014.4
20260505022534 68 0 0.0 8.0 0.00 0.00 0.00 61 1014.5
20260505022035 68 261 2.0 8.0 0.00 0.00 0.00 59 1014.4
20260505021542 68 265 2.0 8.0 0.00 0.00 0.00 59 1014.4
20260505021034 68 263 1.0 9.0 0.00 0.00 0.00 58 1014.3
20260505020535 68 271 2.0 9.0 0.00 0.00 0.00 57 1014.3
20260505020043 68 265 3.0 8.0 0.00 0.00 0.00 56 1014.3
20260505015535 67 286 1.0 6.0 0.00 0.00 0.00 54 1014.2
20260505015035 67 0 0.0 4.0 0.00 0.00 0.00 54 1014.2
20260505014545 67 0 0.0 4.0 0.00 0.00 0.00 52 1014.3
20260505014035 67 0 0.0 3.0 0.00 0.00 0.00 53 1014.1
20260505013535 67 265 1.0 3.0 0.00 0.00 0.00 53 1014.0
20260505013044 67 0 0.0 2.0 0.00 0.00 0.00 53 1014.0
20260505012535 67 0 0.0 3.0 0.00 0.00 0.00 52 1013.9
20260505012037 67 0 0.0 3.0 0.00 0.00 0.00 54 1013.9
20260505011545 67 273 0.0 2.0 0.00 0.00 0.00 53 1013.8
20260505011034 67 273 0.0 0.0 0.00 0.00 0.00 52 1013.8
20260505010535 68 0 0.0 2.0 0.00 0.00 0.00 52 1013.7
20260505010057 68 0 0.0 2.0 0.00 0.00 0.00 53 1013.6
20260505005535 68 0 0.0 0.0 0.00 0.00 0.00 51 1013.6
20260505005035 68 0 0.0 0.0 0.00 0.00 0.00 50 1013.5
20260505004543 69 0 0.0 0.0 0.00 0.00 0.00 50 1013.4
20260505004035 69 0 0.0 0.0 0.00 0.00 0.00 50 1013.4
20260505003534 70 0 0.0 0.0 0.00 0.00 0.00 49 1013.4
20260505003041 70 0 0.0 0.0 0.00 0.00 0.00 47 1013.2
20260505002534 71 0 0.0 0.0 0.00 0.00 0.00 46 1013.2
20260505002034 72 0 0.0 0.0 0.00 0.00 0.00 45 1013.2
20260505001547 72 0 0.0 1.0 0.00 0.00 0.00 44 1013.2
20260505001034 73 0 0.0 1.0 0.00 0.00 0.00 44 1013.2
20260505000535 73 0 0.0 4.0 0.00 0.00 0.00 42 1013.0
20260505000055 74 0 0.0 6.0 0.00 0.00 0.00 42 1013.0
20260504235535 74 273 1.0 8.0 0.00 0.00 0.00 40 1013.1
20260504235035 74 0 1.0 8.0 0.00 0.00 0.00 41 1013.1
20260504234545 75 267 0.0 3.0 0.00 0.00 0.00 40 1013.0
20260504234034 75 0 1.0 5.0 0.00 0.00 0.00 40 1012.8
20260504233535 75 0 1.0 5.0 0.00 0.00 0.00 38 1012.8
20260504233044 75 0 1.0 4.0 0.00 0.00 0.00 40 1012.6
20260504232535 76 0 0.0 4.0 0.00 0.00 0.00 39 1012.7
20260504232034 76 0 1.0 4.0 0.00 0.00 0.00 40 1012.6
20260504231550 77 263 1.0 6.0 0.00 0.00 0.00 35 1012.5
20260504231034 77 267 2.0 6.0 0.00 0.00 0.00 34 1012.4
20260504230534 77 273 2.0 6.0 0.00 0.00 0.00 35 1012.4
20260504230048 77 0 1.0 6.0 0.00 0.00 0.00 35 1012.4
20260504225536 78 267 2.0 8.0 0.00 0.00 0.00 33 1012.3
20260504225034 78 0 2.0 8.0 0.00 0.00 0.00 33 1012.4
20260504224543 78 267 3.0 8.0 0.00 0.00 0.00 32 1012.4
20260504224036 79 266 2.0 6.0 0.00 0.00 0.00 35 1012.4
20260504223535 79 257 1.0 6.0 0.00 0.00 0.00 36 1012.4
20260504223044 79 0 1.0 8.0 0.00 0.00 0.00 35 1012.4
20260504222534 78 278 2.0 8.0 0.00 0.00 0.00 33 1012.4